Location: Astronomy Club of Akron Observatory
(40.9700°N, 81.5606°W)
Time: 00:32:52
(UTC-04:00)

ATLAS 2AS CENTAUR R/B - Visible Passes

Search period start: 26 July 2016 00:00
Search period end: 05 August 2016 00:00
Orbit: 905 x 1307 km, 63.7° (Epoch: 22 July)

Date Brightness Start Highest point End Pass type
(mag) Time Alt. Az. Time Alt. Az. Time Alt. Az.
26 Jul 4.5 00:26:34 10° NNW 00:33:38 31° NE 00:39:40 13° E visible
26 Jul 2.9 02:17:24 10° NW 02:25:32 79° WSW 02:27:02 61° S visible
26 Jul 4.5 04:10:59 10° WNW 04:14:24 15° W 04:14:24 15° W visible
26 Jul 5.4 21:49:56 10° NNW 21:53:42 14° N 21:57:29 10° NNE visible
26 Jul 4.8 23:41:51 10° NNW 23:48:10 24° NNE 23:54:18 10° E visible
27 Jul 3.1 01:32:32 10° NNW 01:40:41 73° NE 01:42:50 51° ESE visible
27 Jul 4.0 03:24:42 10° NW 03:30:12 26° W 03:30:12 26° W visible
27 Jul 5.1 22:57:04 10° NNW 23:02:32 19° NNE 23:07:54 10° ENE visible
28 Jul 3.6 00:47:45 10° NNW 00:55:40 51° NE 00:58:44 35° E visible
28 Jul 3.5 02:39:12 10° NW 02:46:07 41° WSW 02:46:07 41° WSW visible
28 Jul 5.2 22:12:08 10° NNW 22:16:45 16° NNE 22:21:21 10° NE visible
29 Jul 4.1 00:03:02 10° NNW 00:10:28 37° NE 00:14:44 22° E visible
29 Jul 3.0 01:54:02 10° NW 02:02:00 63° WSW 02:02:08 63° WSW visible
29 Jul 5.3 21:26:56 10° NNW 21:30:54 14° N 21:34:51 10° NE visible
29 Jul 4.5 23:18:20 10° NNW 23:25:06 28° NE 23:30:49 13° E visible
30 Jul 2.8 01:09:05 10° NW 01:17:15 89° NE 01:18:13 72° SE visible
30 Jul 4.5 03:01:57 10° WNW 03:05:37 18° W 03:05:37 18° W visible
30 Jul 4.9 22:33:36 10° NNW 22:39:34 21° NNE 22:45:24 10° ENE visible
31 Jul 3.2 00:24:16 10° NNW 00:32:21 63° NE 00:34:23 48° ESE visible
31 Jul 4.0 02:16:05 10° NW 02:21:47 30° W 02:21:47 30° W visible
31 Jul 5.0 21:48:46 10° NNW 21:53:53 17° NNE 21:58:55 10° ENE visible
31 Jul 3.8 23:39:31 10° NNW 23:47:15 45° NE 23:50:35 30° E visible
01 Aug 3.3 01:30:45 10° NW 01:37:59 48° WSW 01:37:59 48° WSW visible
01 Aug 5.1 21:03:44 10° NNW 21:08:04 15° NNE 21:12:21 10° NE visible
01 Aug 4.2 22:54:48 10° NNW 23:01:59 33° NE 23:06:51 18° E visible
02 Aug 2.9 00:45:41 10° NW 00:53:46 74° WSW 00:54:16 72° SSW visible
02 Aug 4.9 02:39:43 10° WNW 02:41:40 13° W 02:41:40 13° W visible
02 Aug 4.6 22:10:05 10° NNW 22:16:33 25° NNE 22:22:48 10° E visible
03 Aug 3.0 00:00:48 10° NNW 00:08:58 78° NE 00:10:35 59° ESE visible
03 Aug 4.4 01:53:09 10° WNW 01:58:00 23° W 01:58:00 23° W visible
03 Aug 4.9 21:25:19 10° NNW 21:30:57 20° NNE 21:36:27 10° ENE visible
03 Aug 3.4 23:16:00 10° NNW 23:23:58 54° NE 23:26:57 37° ESE visible
04 Aug 3.7 01:07:33 10° NW 01:14:22 38° WSW 01:14:22 38° WSW visible
04 Aug 3.9 22:31:16 10° NNW 22:38:48 39° NE 22:43:23 21° E visible
